Showing default

QIANFAN-107, 66049

Orbit data source: Space-Track

QIANFAN-107, 66049 is a Chinese payload satellite in LEO that was launched on Fri, 17 Oct 2025 UTC via a CHANG ZHENG 6A launch vehicle from the Taiyaun Space Center, China (TSC). Payload-class satellites include a variety of spacecraft equipped with specific instruments for various scientific and technological missions. These include communications satellites like Starlink; space stations such as the ISS; scientific satellites like the Hubble; Earth observation satellites from companies like Planet Labs, Umbra, and HawkEye 360; GPS; miniature CubeSats for education and research; and military/defense satellites.

Loading next visibility...
Identifier
66049, 2025-233S
Orbit
LEO
Country
Flag of CNCN / PRC
Related business
Manufacturer
SECM
Mission
Operational Commercial Communications
Bus & Motor
QIANFAN, Unknown motor
Mass
267 kg wet, ~267 kg dry
Launch date (UTC)
2025-10-17 (8 months ago)
Launch vehicle
CHANG ZHENG 6A
Launch site
Taiyaun Space Center, China (TSC)
Object type
Payload
Rocket body
Debris
Shape & HBR
Box + 1 Pan, 14.5 m
Radar Cross Section
13.200 m², Large (>1 m²)

Expand to show TLE details & history
Last TLE update: 10 hours ago

TLE from 10 hours ago
0 QIANFAN-107
1 66049U 25233S   26177.60501282  .00000091  00000-0  12214-3 0  9990
2 66049  89.0004  42.2370 0001845  83.6300 276.5061 13.51012695 34461
Epoch: 2026-06-26T14:31Z
TLE epoch observation values (Epoch: 2026-06-26T14:31:13.107Z)
Latitude
-0.00006°
Longitude
-90.29874°
Altitude
1,071.333 km
Speed
7.316 km/s
True Right ascension
02h 48m 56s
True Declination
0° 00' 00"
Sunlit
Object was in daylight at epoch
Visualization orbit readout
Latitude
Unknown
Longitude
Unknown
Altitude
Unknown
Speed
Unknown
Apparent Right ascension
Unknown
Apparent Declination
Unknown
Sunlit
N/A
Visualization observer readout
Local Sidereal Time
12:10:05
Azimuth
Unknown
Elevation
Unknown
Doppler factor
Unknown
Orbital elements
Apogee altitude
1,066.959 km
Perigee altitude
1,064.213 km
Semi-major axis
7,443.723 km
Eccentricity
0.00018
Inclination
89.0004°
RAAN
42.237°
Arg. of periapsis
83.63°
True anomaly
276.48509°
Mean anomaly
276.5061°
Eccentric anomaly
276.4956°
Mean motion
3.37954 °/min
Orbital period
106.52 mins
BSTAR
0.00012214
Loading maneuver chart data...
Computing Atmospheric mass density...
Loading historical data...
Loading historical data...
Loading historical data...
Loading historical data...
Loading historical data...
Loading historical data...
Loading historical data...

Documentation

Showing up to 5 results
|